Location: Anaheim
(33.8350°N, 117.9140°W)
Time: 16:41:49
(UTC-07:00)

Amateur Radio Satellites - All Passes

Search period start: 23 April 2017 16:11
Search period end: 24 April 2017 16:11
Location: Anaheim, 33.8350°N, 117.9140°W

Satellite Date Start Highest point End Downlink Frequencies (MHz)
Time Altitude Azimuth
ISS 23 Apr 16:21:51 16:24:44 28° 37° (NE) 16:27:36 437.550
KKS-1 23 Apr 16:25:11 16:27:28 14° 94° (E) 16:29:45 437.445
Tancredo 1 23 Apr 16:26:33 16:29:31 40° 40° (NE) 16:32:28 437.200
CUBESAT XI-V 23 Apr 16:27:59 16:30:46 16° 93° (E) 16:33:34 437.345
YUBILEINY 23 Apr 16:34:52 16:43:39 82° 265° (W) 16:52:26 435.215
BEESAT 2 23 Apr 16:44:46 16:45:58 11° 312° (NW) 16:47:08 435.950
DOVE 4 23 Apr 16:49:28 16:52:27 15° 66° (ENE) 16:55:27 437.250
BEESAT 23 Apr 16:58:46 17:01:57 18° 293° (WNW) 17:05:09 436.000
SO-50 23 Apr 17:02:53 17:07:20 64° 244° (WSW) 17:11:48 436.795
STARS 23 Apr 17:06:24 17:09:15 17° 95° (E) 17:12:05 437.465
RS-15 23 Apr 17:14:51 17:27:03 70° 58° (ENE) 17:38:35 29.354- 29.394
MOZHAYETS 4 23 Apr 17:23:15 17:26:29 19° 291° (WNW) 17:29:44
XW-2F 23 Apr 17:30:45 17:33:11 17° 70° (ENE) 17:35:37 145.980 - 146.000
JUGNU 23 Apr 17:44:34 17:46:49 12° 165° (SSE) 17:49:05 437.505
NUDT-PHONESAT 23 Apr 17:52:14 17:55:17 25° 73° (ENE) 17:58:20 437.300
ISS 23 Apr 17:58:35 18:01:04 20° 231° (SW) 18:03:33 437.550
CUTE-I 23 Apr 17:59:13 18:04:18 45° 72° (ENE) 18:09:23 437.470
KKS-1 23 Apr 17:59:59 18:04:10 41° 287° (WNW) 18:08:19 437.445
Tancredo 1 23 Apr 18:03:45 18:05:09 12° 233° (SW) 18:06:33 437.200
CUBESAT XI-V 23 Apr 18:03:50 18:08:17 42° 287° (WNW) 18:12:42 437.345
XW-2D 23 Apr 18:16:34 18:20:18 79° 78° (ENE) 18:24:03 145.860 - 145.880
XW-2B 23 Apr 18:23:24 18:27:08 86° 256° (WSW) 18:30:54 145.730 - 145.750
DOVE 4 23 Apr 18:24:23 18:29:34 59° 260° (W) 18:34:48 437.250
LilacSat-2 23 Apr 18:30:21 18:34:03 63° 259° (W) 18:37:48 437.200
XW-2C 23 Apr 18:35:14 18:38:53 56° 259° (W) 18:42:35 145.795 - 145.815
YUBILEINY 23 Apr 18:36:01 18:38:58 12° 283° (WNW) 18:41:56 435.215
KAITUO 1B 23 Apr 18:41:25 18:45:03 60° 260° (W) 18:48:42 145.475/437.950
STARS 23 Apr 18:41:43 18:45:38 33° 288° (WNW) 18:49:31 437.465
HO-68 23 Apr 18:49:08 18:55:36 39° 67° (ENE) 19:02:07 435.675
STRAND 1 23 Apr 18:56:09 18:56:57 10° 92° (E) 18:57:45 437.568
XW-2A 23 Apr 18:56:34 18:59:12 22° 73° (ENE) 19:01:50 145.665 - 145.685
XW-2F 23 Apr 19:04:05 19:07:07 24° 263° (W) 19:10:10 145.980 - 146.000
M-CUBED/EXP-1 PRIME 23 Apr 19:20:46 19:22:58 14° 97° (E) 19:25:04 437.505
NUDT-PHONESAT 23 Apr 19:27:01 19:29:10 15° 266° (W) 19:31:19 437.300
RS-15 23 Apr 19:28:49 19:38:23 29° 258° (WSW) 19:47:38 29.354- 29.394
JUGNU 23 Apr 19:30:59 19:35:08 19° 174° (S) 19:39:17 437.505
CUTE 1.7 + AOD 2 23 Apr 19:36:23 19:40:34 79° 78° (ENE) 19:44:48 437.475
CUTE-I 23 Apr 19:40:52 19:44:29 18° 266° (W) 19:48:07 437.470
AAUSAT CUBESAT 2 23 Apr 19:46:22 19:49:52 27° 72° (ENE) 19:53:23 437.432
Oscar 11 23 Apr 19:58:36 20:00:53 14° 67° (ENE) 20:03:09 .
UWE-3 23 Apr 20:01:02 20:05:01 37° 74° (ENE) 20:08:57 435.000/436.395/437.385
O/OREOS (USA 219) 23 Apr 20:02:49 20:04:42 12° 58° (ENE) 20:06:34 437.305
SEEDS 23 Apr 20:02:57 20:07:06 78° 258° (WSW) 20:11:19 437.485
CUBEBUG 2 23 Apr 20:06:33 20:11:00 79° 78° (ENE) 20:15:21 437.445
NO-84 23 Apr 20:10:44 20:14:29 66° 130° (SE) 20:17:55 435.350 FM
XW-2A 23 Apr 20:30:02 20:31:54 14° 265° (W) 20:33:46 145.665 - 145.685
STRAND 1 23 Apr 20:31:27 20:36:32 70° 285° (WNW) 20:41:35 437.568
HO-68 23 Apr 20:36:56 20:43:15 34° 262° (W) 20:49:39 435.675
SRMSAT 23 Apr 20:48:09 20:51:16 14° 167° (SSE) 20:54:22 437.500
M-CUBED/EXP-1 PRIME 23 Apr 20:53:43 20:57:33 36° 293° (WNW) 21:01:09 437.505
OBJECT BX 23 Apr 20:59:02 21:00:22 12° 68° (ENE) 21:01:42 145.990 - 145.960
DELFI C3 23 Apr 21:01:14 21:04:05 19° 70° (ENE) 21:06:58 145.870
ZACube-1 23 Apr 21:03:52 21:08:05 66° 259° (W) 21:12:15 437.345
AO-73 23 Apr 21:12:49 21:16:59 57° 260° (W) 21:21:06 145.935
JUGNU 23 Apr 21:19:16 21:23:30 20° 185° (S) 21:27:43 437.505
AAUSAT CUBESAT 2 23 Apr 21:22:24 21:25:17 18° 265° (W) 21:28:11 437.432
Oscar 11 23 Apr 21:32:35 21:36:37 40° 261° (W) 21:40:40 .
UWE-3 23 Apr 21:39:10 21:41:34 14° 266° (W) 21:43:54 435.000/436.395/437.385
O/OREOS (USA 219) 23 Apr 21:39:58 21:44:27 56° 254° (WSW) 21:48:53 437.305
PRISM 23 Apr 21:46:07 21:49:10 20° 96° (E) 21:52:12 437.425
NO-84 23 Apr 21:50:49 21:52:15 12° 323° (NW) 21:53:37 435.350 FM
FO-29 23 Apr 22:05:20 22:08:38 17° 95° (E) 22:12:02 435.910
LO-87 23 Apr 22:13:25 22:15:05 13° 69° (ENE) 22:16:45 145.935 - 145.965
ESTCUBE 1 23 Apr 22:27:54 22:30:00 13° 66° (ENE) 22:32:07 437.505/2401.250
OBJECT BX 23 Apr 22:30:24 22:33:42 33° 262° (W) 22:37:01 145.990 - 145.960
TIGRISAT 23 Apr 22:33:28 22:37:30 40° 99° (E) 22:41:34 435.000
DELFI C3 23 Apr 22:35:27 22:38:41 24° 264° (W) 22:41:57 145.870
SRMSAT 23 Apr 22:35:27 22:39:45 20° 177° (S) 22:44:02 437.500
AO-85 23 Apr 22:42:42 22:46:40 65° 60° (ENE) 22:50:52 145.980
UNISAT 6 23 Apr 22:53:30 22:57:48 81° 104° (ESE) 23:02:07 437.425
JUGNU 23 Apr 23:09:06 23:11:49 13° 194° (SSW) 23:14:33 437.505
PRISM 23 Apr 23:20:56 23:24:22 26° 289° (WNW) 23:27:47 437.425
BEESAT 2 23 Apr 23:26:53 23:28:34 12° 49° (NE) 23:30:14 435.950
BEESAT 3 23 Apr 23:33:44 23:37:28 36° 57° (ENE) 23:41:09 437.485
LO-87 23 Apr 23:44:57 23:48:12 30° 262° (W) 23:51:27 145.935 - 145.965
POLYITAN 1 23 Apr 23:45:34 23:48:28 18° 95° (E) 23:51:20 437.675
FO-29 23 Apr 23:48:57 23:53:54 46° 287° (WNW) 23:59:07 435.910
QB50P2 23 Apr 23:51:34 23:54:57 23° 96° (E) 23:58:20 145.880/145.840
DX 1 23 Apr 23:57:39 23:59:43 13° 66° (ENE) 00:01:47 434.975-435.025
ESTCUBE 1 24 Apr 00:02:00 00:06:19 48° 260° (W) 00:10:42 437.505/2401.250
TIGRISAT 24 Apr 00:11:38 00:13:49 14° 292° (WNW) 00:16:00 435.000
AIST 2D 24 Apr 00:11:56 00:15:27 89° 278° (W) 00:18:59 435.315
NANOSAT C BR1 24 Apr 00:16:18 00:20:14 39° 99° (E) 00:24:08 145.865
SPROUT 24 Apr 00:19:37 00:23:50 61° 76° (ENE) 00:28:04 437.525
SRMSAT 24 Apr 00:24:13 00:28:16 19° 187° (S) 00:32:18 437.500
VELOX 1 24 Apr 00:28:50 00:33:16 87° 77° (ENE) 00:37:45 145.980
BUGSAT 1 24 Apr 00:28:56 00:30:47 13° 94° (E) 00:32:36 437.445
50 SAT 24 Apr 00:39:19 00:42:43 64° 77° (ENE) 00:46:12 437.505
EO-79 24 Apr 00:41:49 00:46:01 87° 289° (WNW) 00:50:13 145.935-145.965
DUCHIFAT 1 24 Apr 00:47:40 00:51:51 89° 107° (ESE) 00:56:00 145.980
Oscar 19 24 Apr 00:59:25 01:00:15 10° 91° (E) 01:01:05 437.125/150
BEESAT 2 24 Apr 01:02:41 01:06:38 55° 245° (WSW) 01:10:33 435.950
UKube-1 24 Apr 01:04:41 01:08:54 54° 74° (ENE) 01:13:08 .
BEESAT 3 24 Apr 01:12:28 01:14:42 15° 251° (WSW) 01:16:54 437.485
POLYITAN 1 24 Apr 01:20:36 01:24:13 29° 288° (WNW) 01:27:50 437.675
QB50P2 24 Apr 01:27:20 01:30:36 22° 290° (WNW) 01:33:52 145.880/145.840
DX 1 24 Apr 01:31:15 01:35:26 46° 260° (W) 01:39:41 434.975-435.025
NANOSAT C BR1 24 Apr 01:53:25 01:55:34 14° 293° (WNW) 01:57:43 145.865
BUGSAT 1 24 Apr 02:02:33 02:06:14 36° 287° (WNW) 02:09:53 437.445
Gurwin Techsat 1B 24 Apr 02:11:55 02:16:48 36° 98° (E) 02:21:39 435.225
SRMSAT 24 Apr 02:15:10 02:16:43 11° 196° (SSW) 02:18:16 437.500
BEESAT 24 Apr 02:22:50 02:26:55 29° 70° (ENE) 02:31:00 436.000
Oscar 19 24 Apr 02:34:47 02:39:59 72° 285° (WNW) 02:45:09 437.125/150
MOZHAYETS 4 24 Apr 02:44:05 02:47:28 21° 69° (ENE) 02:50:51
PCSat 24 Apr 02:55:44 03:01:08 81° 114° (ESE) 03:06:35 145.827
ITUPSAT 1 24 Apr 03:00:35 03:05:20 76° 75° (ENE) 03:10:05 437.325
YUBILEINY 24 Apr 03:36:55 03:43:13 23° 82° (E) 03:49:30 435.215
Gurwin Techsat 1B 24 Apr 03:52:21 03:56:29 23° 292° (WNW) 04:00:35 435.225
ITAMSAT 1 24 Apr 03:54:00 03:59:02 52° 100° (E) 04:04:03 435.822/435.867
BEESAT 24 Apr 04:00:52 04:04:37 23° 264° (W) 04:08:23 436.000
AO-7 24 Apr 04:07:11 04:15:19 56° 103° (ESE) 04:23:26 .
MOZHAYETS 4 24 Apr 04:20:25 04:24:23 30° 263° (W) 04:28:23
NO-84 24 Apr 04:25:28 04:28:18 70° 47° (NE) 04:31:08 435.350 FM
PCSat 24 Apr 04:42:36 04:45:10 13° 311° (NW) 04:47:45 145.827
KKS-1 24 Apr 04:53:28 04:57:56 77° 258° (WSW) 05:02:25 437.445
CUBESAT XI-V 24 Apr 05:02:37 05:07:12 69° 259° (WSW) 05:11:51 437.345
YUBILEINY 24 Apr 05:30:38 05:39:12 63° 279° (W) 05:47:50 435.215
RS-15 24 Apr 05:31:25 05:33:06 10° 95° (E) 05:34:48 29.354- 29.394
STARS 24 Apr 05:33:37 05:37:59 63° 259° (WSW) 05:42:22 437.465
ITAMSAT 1 24 Apr 05:34:55 05:38:01 16° 295° (WNW) 05:41:08 435.822/435.867
XW-2D 24 Apr 05:55:12 05:56:12 11° 93° (E) 05:57:13 145.860 - 145.880
AO-7 24 Apr 06:00:45 06:07:35 30° 299° (WNW) 06:14:25 .
XW-2B 24 Apr 06:01:19 06:03:07 13° 94° (E) 06:04:54 145.730 - 145.750
M-CUBED/EXP-1 PRIME 24 Apr 06:02:53 06:04:55 13° 60° (ENE) 06:06:59 437.505
LilacSat-2 24 Apr 06:08:09 06:10:46 17° 95° (E) 06:13:21 437.200
STRAND 1 24 Apr 06:08:22 06:09:51 11° 63° (ENE) 06:11:20 437.568
XW-2C 24 Apr 06:12:15 06:14:58 19° 95° (E) 06:17:41 145.795 - 145.815
KAITUO 1B 24 Apr 06:17:18 06:19:45 16° 95° (E) 06:22:12 145.475/437.950
CUTE-I 24 Apr 06:20:41 06:24:59 25° 96° (E) 06:29:15 437.470
DOVE 4 24 Apr 06:27:55 06:32:27 52° 99° (E) 06:36:42 437.250
XW-2F 24 Apr 06:39:12 06:42:48 40° 99° (E) 06:46:24 145.980 - 146.000
NUDT-PHONESAT 24 Apr 06:59:23 07:03:05 63° 101° (E) 07:06:46 437.300
SO-50 24 Apr 07:12:55 07:17:33 79° 299° (WNW) 07:22:09 436.795
CUTE 1.7 + AOD 2 24 Apr 07:25:59 07:28:57 18° 94° (E) 07:31:55 437.475
XW-2D 24 Apr 07:26:59 07:30:31 38° 285° (WNW) 07:34:03 145.860 - 145.880
RS-15 24 Apr 07:31:22 07:43:05 66° 112° (ESE) 07:55:13 29.354- 29.394
XW-2B 24 Apr 07:33:56 07:37:21 32° 287° (WNW) 07:40:46 145.730 - 145.750
M-CUBED/EXP-1 PRIME 24 Apr 07:34:17 07:38:44 61° 255° (WSW) 07:43:22 437.505
LilacSat-2 24 Apr 07:41:49 07:44:58 24° 288° (WNW) 07:48:06 437.200
STRAND 1 24 Apr 07:43:15 07:48:21 74° 258° (WSW) 07:53:28 437.568
XW-2C 24 Apr 07:46:03 07:49:04 23° 288° (WNW) 07:52:05 145.795 - 145.815
KAITUO 1B 24 Apr 07:50:37 07:53:42 25° 288° (WNW) 07:56:49 145.475/437.950
SEEDS 24 Apr 07:51:06 07:54:29 23° 96° (E) 07:57:50 437.485
XW-2A 24 Apr 07:54:00 07:57:10 39° 99° (E) 08:00:19 145.665 - 145.685
CUTE-I 24 Apr 08:00:17 08:05:00 33° 290° (WNW) 08:09:42 437.470
CUBEBUG 2 24 Apr 08:01:52 08:04:57 20° 95° (E) 08:08:05 437.445
DOVE 4 24 Apr 08:07:46 08:09:32 12° 295° (WNW) 08:11:16 437.250
HO-68 24 Apr 08:07:48 08:14:54 59° 102° (ESE) 08:21:57 435.675
XW-2F 24 Apr 08:15:35 08:16:31 11° 292° (WNW) 08:17:27 145.980 - 146.000
ZACube-1 24 Apr 08:55:59 08:59:40 29° 97° (E) 09:03:25 437.345
Tancredo 1 24 Apr 08:57:42 09:00:48 78° 317° (NW) 09:03:54 437.200
ISS 24 Apr 08:58:32 09:01:46 76° 135° (SE) 09:05:01 437.550
CUTE 1.7 + AOD 2 24 Apr 09:01:02 09:04:47 30° 288° (WNW) 09:08:30 437.475
AO-73 24 Apr 09:04:25 09:08:14 33° 98° (E) 09:12:07 145.935
AAUSAT CUBESAT 2 24 Apr 09:06:43 09:10:56 90° 101° (ESE) 09:15:06 437.432
Oscar 11 24 Apr 09:23:15 09:27:27 47° 99° (E) 09:31:38 .
SEEDS 24 Apr 09:26:38 09:30:02 24° 289° (WNW) 09:33:27 437.485
TIGRISAT 24 Apr 09:28:45 09:32:14 23° 71° (ENE) 09:35:40 435.000
UWE-3 24 Apr 09:30:09 09:34:13 54° 285° (WNW) 09:38:22 435.000/436.395/437.385
CUBEBUG 2 24 Apr 09:38:06 09:41:30 25° 288° (WNW) 09:44:57 437.445
RS-15 24 Apr 09:45:29 09:56:20 37° 314° (NW) 10:07:30 29.354- 29.394
UNISAT 6 24 Apr 09:48:20 09:52:31 42° 74° (ENE) 09:56:39 437.425
FO-29 24 Apr 09:56:12 10:02:29 47° 73° (ENE) 10:08:06 435.910
HO-68 24 Apr 09:56:40 10:02:03 24° 298° (WNW) 10:07:27 435.675
OBJECT BX 24 Apr 10:03:02 10:06:03 24° 96° (E) 10:09:05 145.990 - 145.960
PRISM 24 Apr 10:05:15 10:09:20 63° 259° (WSW) 10:13:29 437.425
O/OREOS (USA 219) 24 Apr 10:09:37 10:13:25 26° 102° (ESE) 10:17:14 437.305
DELFI C3 24 Apr 10:15:26 10:19:22 52° 100° (E) 10:23:14 145.870
ZACube-1 24 Apr 10:32:49 10:35:44 18° 290° (WNW) 10:38:40 437.345
ISS 24 Apr 10:37:08 10:38:36 12° 331° (NNW) 10:40:02 437.550
AO-73 24 Apr 10:41:33 10:44:12 16° 291° (WNW) 10:46:52 145.935
QB50P2 24 Apr 10:42:21 10:43:43 11° 66° (ENE) 10:45:05 145.880/145.840
AIST 2D 24 Apr 10:43:32 10:45:48 17° 71° (ENE) 10:48:04 435.315
Oscar 11 24 Apr 11:01:14 11:03:08 13° 293° (WNW) 11:05:01 .
TIGRISAT 24 Apr 11:05:07 11:08:46 25° 263° (W) 11:12:22 435.000
NANOSAT C BR1 24 Apr 11:05:20 11:08:12 18° 69° (ENE) 11:11:05 145.865
LO-87 24 Apr 11:15:49 11:18:46 24° 97° (E) 11:21:40 145.935 - 145.965
UNISAT 6 24 Apr 11:27:12 11:29:21 13° 266° (W) 11:31:29 437.425
EO-79 24 Apr 11:30:11 11:34:07 39° 73° (ENE) 11:38:04 145.935-145.965
DUCHIFAT 1 24 Apr 11:35:28 11:39:20 37° 73° (ENE) 11:43:11 145.980
OBJECT BX 24 Apr 11:37:14 11:39:31 16° 290° (WNW) 11:41:48 145.990 - 145.960
FO-29 24 Apr 11:42:30 11:47:34 23° 263° (W) 11:52:16 435.910
PCSat 24 Apr 11:47:58 11:52:39 29° 56° (ENE) 11:57:18 145.827
O/OREOS (USA 219) 24 Apr 11:49:00 11:52:43 24° 297° (WNW) 11:56:27 437.305
ESTCUBE 1 24 Apr 11:58:08 12:02:30 46° 99° (E) 12:06:50 437.505/2401.250
POLYITAN 1 24 Apr 12:08:21 12:12:33 66° 260° (W) 12:16:44 437.675
RS-15 24 Apr 12:08:46 12:14:15 13° 346° (NNW) 12:19:43 29.354- 29.394
SPROUT 24 Apr 12:10:46 12:12:55 14° 93° (E) 12:15:04 437.525
Oscar 19 24 Apr 12:12:29 12:14:05 11° 63° (ENE) 12:15:40 437.125/150
QB50P2 24 Apr 12:14:55 12:19:02 49° 260° (W) 12:23:08 145.880/145.840
AIST 2D 24 Apr 12:16:12 12:18:50 20° 264° (W) 12:21:29 435.315
VELOX 1 24 Apr 12:23:27 12:26:52 22° 96° (E) 12:30:16 145.980
NANOSAT C BR1 24 Apr 12:39:58 12:43:40 30° 262° (W) 12:47:23 145.865
BUGSAT 1 24 Apr 12:47:29 12:51:39 85° 79° (E) 12:55:49 437.445
LO-87 24 Apr 12:49:53 12:51:58 15° 290° (WNW) 12:54:02 145.935 - 145.965
AO-85 24 Apr 12:53:15 12:57:35 56° 116° (ESE) 13:01:38 145.980
UKube-1 24 Apr 12:57:34 12:59:16 12° 93° (E) 13:00:57 .
EO-79 24 Apr 13:07:58 13:10:01 13° 267° (W) 13:12:03 145.935-145.965
DUCHIFAT 1 24 Apr 13:12:50 13:15:05 14° 266° (W) 13:17:19 145.980
BEESAT 3 24 Apr 13:21:09 13:23:25 15° 109° (ESE) 13:25:43 437.485
DX 1 24 Apr 13:23:11 13:27:15 38° 99° (E) 13:31:17 434.975-435.025
Gurwin Techsat 1B 24 Apr 13:29:07 13:34:02 40° 71° (ENE) 13:38:59 435.225
PCSat 24 Apr 13:31:11 13:35:59 33° 252° (WSW) 13:40:45 145.827
ESTCUBE 1 24 Apr 13:36:28 13:38:51 14° 293° (WNW) 13:41:14 437.505/2401.250
50 SAT 24 Apr 13:39:20 13:42:47 64° 284° (WNW) 13:46:12 437.505
SPROUT 24 Apr 13:45:00 13:48:56 38° 287° (WNW) 13:52:51 437.525
Oscar 19 24 Apr 13:47:34 13:52:42 74° 258° (WSW) 13:57:53 437.125/150
VELOX 1 24 Apr 13:59:32 14:03:14 27° 290° (WNW) 14:06:55 145.980
RS-15 24 Apr 14:27:04 14:34:33 17° 25° (NNE) 14:41:51 29.354- 29.394
UKube-1 24 Apr 14:31:21 14:35:29 45° 287° (WNW) 14:39:34 .
AO-85 24 Apr 14:36:22 14:38:12 12° 310° (NW) 14:40:00 145.980
BEESAT 2 24 Apr 14:49:54 14:53:47 64° 116° (ESE) 14:57:45 435.950
BEESAT 3 24 Apr 14:57:05 15:00:40 34° 303° (WNW) 15:04:19 437.485
DX 1 24 Apr 15:00:31 15:03:04 15° 293° (WNW) 15:05:36 434.975-435.025
AO-7 24 Apr 15:01:45 15:09:44 54° 67° (ENE) 15:17:43 .
ITUPSAT 1 24 Apr 15:05:26 15:09:24 26° 97° (E) 15:13:23 437.325
ITAMSAT 1 24 Apr 15:08:01 15:13:04 54° 73° (ENE) 15:18:07 435.822/435.867
Gurwin Techsat 1B 24 Apr 15:10:10 15:14:04 21° 265° (W) 15:17:58 435.225
Tancredo 1 24 Apr 15:26:55 15:29:10 18° 33° (NNE) 15:31:25 437.200
ISS 24 Apr 15:30:08 15:32:19 17° 32° (NNE) 15:34:30 437.550
YUBILEINY 24 Apr 15:45:30 15:54:04 55° 80° (E) 16:02:37 435.215
SO-50 24 Apr 15:48:12 15:52:11 30° 55° (NE) 15:56:10 436.795
